Lexington Weather

Lexington, Massachusetts, USA

45°F
4/22/2024 9:31am 
  • Lexington Conditions: Clear
  • Temperature: 44.8°F / 7.1°CWarmer 2.4°F than last hour.
  • Dew Point: 25.3°FDecreased 2.2°Fsince last hour.
  • Relative Humidity: 46%Decreased 9.0% since last hour.
  • Wind: Calm, 10-min avg: Calm, gust: 6 mph
  • Barometer: 29.97 inRising 0.02  inHg/hr Rising Slowly
  • Visibility: 10 miles
  • Rain Today: 0.00 in
  •   

Regional Weather Roundup
for Boston, MA

        
000
ASUS41 KBOX 151610
RWRBOX

REGIONAL WEATHER ROUNDUP
NATIONAL WEATHER SERVICE BOSTON/NORTON MA
1200 PM EDT MON APR 15 2024

NOTE:  "FAIR" INDICATES FEW OR NO CLOUDS BELOW 12,000 FEET WITH NO 
SIGNIFICANT WEATHER AND/OR OBSTRUCTIONS TO VISIBILITY.

MAZALL-151700-
EASTERN MASSACHUSETTS
  
CITY           SKY/WX    TMP DP  RH WIND       PRES   REMARKS
BOSTON         MOSUNNY   63  48  58 S10       29.79F                  
BEVERLY        MOSUNNY   63  47  55 SW6       29.77F                  
LAWRENCE       SUNNY     63  46  54 SW10      29.78F                  
BEDFORD        MOSUNNY   64  47  53 SW8       29.77F                  
NORWOOD        MOSUNNY   65  47  52 CALM      29.78F                  
MARSHFIELD     MOSUNNY   66  46  48 VRB5      29.79F                  
PLYMOUTH       PTSUNNY   66  46  48 SW8       29.79F                  
TAUNTON        MOSUNNY   69  47  45 SW6       29.79F                  
NEW BEDFORD    MOSUNNY   66  46  48 SW5       29.80F                  
$$

MAZALL-151700-
CAPE COD AND THE ISLANDS
  
CITY           SKY/WX    TMP DP  RH WIND       PRES   REMARKS
FALMOUTH       CLOUDY    63  46  55 W7        29.82S                  
HYANNIS        CLOUDY    61  47  59 S7        29.80S                  
CHATHAM        CLOUDY    61  48  62 VRB3      29.81F                  
PROVINCETOWN   PTSUNNY   59  48  67 SW8       29.82S                  
NANTUCKET      CLOUDY    51  45  79 SW9       29.83R                  
MARTHAS VNYRD  CLOUDY    64  48  56 VRB3      29.82R                  
$$
 
MAZALL-151700-
CENTRAL AND WESTERN MASSACHUSETTS
  
CITY           SKY/WX    TMP DP  RH WIND       PRES   REMARKS
WORCESTER      SUNNY     64  42  44 SW17G25   29.79F                  
FITCHBURG      MOSUNNY   66  44  45 W13G22    29.79F                  
ORANGE         MOSUNNY   63  46  54 W10       29.79F                  
SPRINGFIELD    MOSUNNY   66  48  50 CALM      29.76F                  
WESTFIELD      SUNNY     66  49  54 S7        29.78F                  
NORTH ADAMS    MOSUNNY   63  45  51 NW12G26   29.81S                  
PITTSFIELD     MOSUNNY   60  42  51 W14G24    29.80S                  
$$
 
RIZALL-151700-
RHODE ISLAND
  
CITY           SKY/WX    TMP DP  RH WIND       PRES   REMARKS
PROVIDENCE     MOSUNNY   65  50  58 SE10      29.80F                  
NEWPORT        SUNNY     63  49  60 CALM      29.80F                  
BLOCK ISLAND   SUNNY     60  50  69 CALM      29.82F                  
SMITHFIELD     MOSUNNY   68  47  46 SW8       29.80F                  
WESTERLY       SUNNY     69  49  48 VRB3      29.80F                  
$$
 
CTZALL-151700-
CONNECTICUT
  
CITY           SKY/WX    TMP DP  RH WIND       PRES   REMARKS
BRADLEY INTL   MOSUNNY   69  51  52 VRB5      29.78F                  
HARTFORD       SUNNY     67  52  58 SE5       29.78F                  
PLAINVILLE     FAIR      73  41  32 VRB7      29.79F                  
BRIDGEPORT     SUNNY     65  53  65 S10       29.81F                  
DANBURY        SUNNY     73  37  27 W15G29    29.83S                  
GROTON         SUNNY     64  53  67 S6        29.80F                  
NEW HAVEN      SUNNY     64  53  67 S8        29.81F                  
CHESTER        NOT AVBL                                               
MERIDEN        SUNNY     72  41  32 NW9       29.79F                  
WILLIMANTIC    SUNNY     67  49  52 MISG      29.80F                  
OXFORD         SUNNY     69  41  36 NW13G18   29.82F                  
$$

MEZ002-015-021-024-NHZ003-005-008-011-012-014-VTZ005-008-151700-
NORTHERN NEW ENGLAND
  
CITY           SKY/WX    TMP DP  RH WIND       PRES   REMARKS
PORTLAND ME    MOSUNNY   62  45  53 SW5       29.75F                  
BANGOR ME      PTSUNNY   57  41  55 W8G20     29.74S                  
CONCORD NH     PTSUNNY   63  42  46 NW12G20   29.76F                  
MANCHESTER NH  PTSUNNY   67  41  38 W14G23    29.76F                  
NASHUA NH      MOSUNNY   65  43  44 W14G22    29.78F                  
PORTSMOUTH NH  MOSUNNY   65  43  45 W12       29.75F                  
JAFFREY NH     PTSUNNY   61  42  49 W13G20    29.79S                  
KEENE NH       PTSUNNY   60  46  59 SW6       29.78F                  
BURLINGTON VT  LGT RAIN  47  43  86 N6        29.84R                  
MT. WASHINGTON FOG       28  28 100 W32         N/A  VSB 0   WCI  12  
$$

NYZ052-076-151700-
EASTERN NEW YORK
  
CITY           SKY/WX    TMP DP  RH WIND       PRES   REMARKS
ALBANY         MOSUNNY   60  45  57 W17G30    29.87R                  
NEW YORK CITY  MOSUNNY   75  36  24 NW8       29.81F                  
$$
 
ANZALL-151700-
MARINE OBSERVATIONS
  
STATION/POSITION TIME  TEMP    WIND        PRES    VSBY  WAVE
                       AIR SEA DIR/SP/G                  HT/PER
                 (UTC) (F)     (DEG/KT/KT) (MB)    (MI)  (FT/S)
BOSTON BUOY      1550   48     150/  4/  6 1008.9F         3/10
BUZZARDS BAY     1500   74     140/ 16/ 18   N/A
NANTUCKET SOUND  1550   51 46  240/  6/  8 1009.6R         1
MASS BAY-STELLWA 1404   49 44  220/  6/  8 1009.6R  1 7/8  3/11
ISLE OF SHOALS   1500   71 74  190/  7/  8 1020.3R
S OF BLOCK IS    1556      45                N/A           6/ 8
$$

......................KEY.........................
  SKY/WX - SKY CONDITION/PRESENT WEATHER
  TMP    - TEMPERATURE IN FAHRENHEIT
  DWPT   - DEWPOINT IN FAHRENHEIT
  RH     - RELATIVE HUMIDITY IN PERCENT
  WIND   - DIRECTION AND SPEED IN MPH
  PRES   - MEAN SEA LEVEL PRESSURE IN INCHES OF HG
  WCI    - WIND CHILL INDEX
  VSB    - VISIBILITY IN MILES
  HX     - HEAT INDEX
  TC     - TEMPERATURE IN CELSIUS
  VRB    - VARIABLE WIND DIRECTION
  N/A    - NOT AVAILABLE
  
      

Other recent Regional Weather Roundups

Mon Apr 22, 9:10am EDT

Mon Apr 22, 8:10am EDT

Mon Apr 22, 7:10am EDT

Mon Apr 22, 6:10am EDT

Mon Apr 22, 5:10am EDT

Mon Apr 22, 4:10am EDT

Mon Apr 22, 3:10am EDT

Mon Apr 22, 2:10am EDT

Mon Apr 22, 1:10am EDT

Mon Apr 22, 12:10am EDT

Sun Apr 21, 11:10pm EDT

Sun Apr 21, 10:10pm EDT

Sun Apr 21, 9:10pm EDT

Sun Apr 21, 8:10pm EDT

Sun Apr 21, 7:10pm EDT

Sun Apr 21, 6:10pm EDT

Sun Apr 21, 5:10pm EDT

Sun Apr 21, 4:10pm EDT

Sun Apr 21, 3:10pm EDT

Sun Apr 21, 2:10pm EDT

Sun Apr 21, 1:10pm EDT

Sun Apr 21, 12:10pm EDT

Sun Apr 21, 11:10am EDT

Sun Apr 21, 10:10am EDT

Sun Apr 21, 9:10am EDT

Sun Apr 21, 8:10am EDT

Sun Apr 21, 7:10am EDT

Sun Apr 21, 6:10am EDT

Sun Apr 21, 5:10am EDT

Sun Apr 21, 4:10am EDT

Sun Apr 21, 3:10am EDT

Sun Apr 21, 2:10am EDT

Sun Apr 21, 1:10am EDT

Sun Apr 21, 12:10am EDT

Sat Apr 20, 11:10pm EDT

Sat Apr 20, 10:10pm EDT

Sat Apr 20, 9:10pm EDT

Sat Apr 20, 8:10pm EDT

Sat Apr 20, 7:10pm EDT

Sat Apr 20, 6:10pm EDT

Sat Apr 20, 5:10pm EDT

Sat Apr 20, 4:10pm EDT

Sat Apr 20, 3:10pm EDT

Sat Apr 20, 2:10pm EDT

Sat Apr 20, 1:10pm EDT

Sat Apr 20, 12:10pm EDT

Sat Apr 20, 11:10am EDT

Sat Apr 20, 10:10am EDT

Sat Apr 20, 9:10am EDT

Sat Apr 20, 8:10am EDT

Sat Apr 20, 7:10am EDT

Sat Apr 20, 6:10am EDT

Sat Apr 20, 5:10am EDT

Sat Apr 20, 4:10am EDT

Sat Apr 20, 3:10am EDT

Sat Apr 20, 2:10am EDT

Sat Apr 20, 1:10am EDT

Sat Apr 20, 12:10am EDT

Fri Apr 19, 11:10pm EDT

Fri Apr 19, 10:10pm EDT

Fri Apr 19, 9:10pm EDT

Fri Apr 19, 8:10pm EDT

Fri Apr 19, 7:10pm EDT

Fri Apr 19, 6:10pm EDT

Fri Apr 19, 5:10pm EDT

Fri Apr 19, 4:10pm EDT

Fri Apr 19, 3:10pm EDT

Fri Apr 19, 2:10pm EDT

Fri Apr 19, 1:10pm EDT

Fri Apr 19, 12:10pm EDT

Fri Apr 19, 11:10am EDT

Fri Apr 19, 10:10am EDT

Fri Apr 19, 9:10am EDT

Fri Apr 19, 8:10am EDT

Fri Apr 19, 7:10am EDT

Fri Apr 19, 6:10am EDT

Fri Apr 19, 5:10am EDT

Fri Apr 19, 4:10am EDT

Fri Apr 19, 3:10am EDT

Fri Apr 19, 2:10am EDT

Fri Apr 19, 1:10am EDT

Fri Apr 19, 12:10am EDT

Thu Apr 18, 11:10pm EDT

Thu Apr 18, 10:10pm EDT

Thu Apr 18, 9:10pm EDT

Thu Apr 18, 8:10pm EDT

Thu Apr 18, 7:10pm EDT

Thu Apr 18, 6:10pm EDT

Thu Apr 18, 5:10pm EDT

Thu Apr 18, 4:10pm EDT

Thu Apr 18, 3:10pm EDT

Thu Apr 18, 2:10pm EDT

Thu Apr 18, 1:10pm EDT

Thu Apr 18, 12:10pm EDT

Thu Apr 18, 11:10am EDT

Thu Apr 18, 10:10am EDT

Thu Apr 18, 9:10am EDT

Thu Apr 18, 8:10am EDT

Thu Apr 18, 7:10am EDT

Thu Apr 18, 6:10am EDT

Thu Apr 18, 5:10am EDT

Thu Apr 18, 4:10am EDT

Thu Apr 18, 3:10am EDT

Thu Apr 18, 2:10am EDT

Thu Apr 18, 1:10am EDT

Thu Apr 18, 12:10am EDT

Wed Apr 17, 11:10pm EDT

Wed Apr 17, 10:10pm EDT

Wed Apr 17, 9:10pm EDT

Wed Apr 17, 8:10pm EDT

Wed Apr 17, 7:10pm EDT

Wed Apr 17, 6:10pm EDT

Wed Apr 17, 5:10pm EDT

Wed Apr 17, 4:10pm EDT

Wed Apr 17, 3:10pm EDT

Wed Apr 17, 2:10pm EDT

Wed Apr 17, 1:10pm EDT

Wed Apr 17, 12:10pm EDT

Wed Apr 17, 11:10am EDT

Wed Apr 17, 10:10am EDT

Wed Apr 17, 9:10am EDT

Wed Apr 17, 8:10am EDT

Wed Apr 17, 7:10am EDT

Wed Apr 17, 6:10am EDT

Wed Apr 17, 5:10am EDT

Wed Apr 17, 4:10am EDT

Wed Apr 17, 3:10am EDT

Wed Apr 17, 2:10am EDT

Wed Apr 17, 1:10am EDT

Wed Apr 17, 12:10am EDT

Tue Apr 16, 11:10pm EDT

Tue Apr 16, 10:10pm EDT

Tue Apr 16, 9:10pm EDT

Tue Apr 16, 8:10pm EDT

Tue Apr 16, 7:10pm EDT

Tue Apr 16, 6:10pm EDT

Tue Apr 16, 5:10pm EDT

Tue Apr 16, 4:10pm EDT

Tue Apr 16, 3:10pm EDT

Tue Apr 16, 2:10pm EDT

Tue Apr 16, 1:10pm EDT

Tue Apr 16, 12:10pm EDT

Tue Apr 16, 11:10am EDT

Tue Apr 16, 10:10am EDT

Tue Apr 16, 9:10am EDT

Tue Apr 16, 8:10am EDT

Tue Apr 16, 7:10am EDT

Tue Apr 16, 6:10am EDT

Tue Apr 16, 5:10am EDT

Tue Apr 16, 4:10am EDT

Tue Apr 16, 3:10am EDT

Tue Apr 16, 2:10am EDT

Tue Apr 16, 1:10am EDT

Tue Apr 16, 12:10am EDT

Mon Apr 15, 11:10pm EDT

Mon Apr 15, 10:10pm EDT

Mon Apr 15, 9:10pm EDT

Mon Apr 15, 8:10pm EDT

Mon Apr 15, 7:10pm EDT

Mon Apr 15, 6:10pm EDT

Mon Apr 15, 5:10pm EDT

Mon Apr 15, 4:10pm EDT

Mon Apr 15, 3:10pm EDT

Mon Apr 15, 2:10pm EDT

Mon Apr 15, 1:10pm EDT

Mon Apr 15, 11:10am EDT

Mon Apr 15, 10:10am EDT